SCP
0 0 0 0 0 0 0 0 0 0 0 0 0 0 0 0 0 0 0 0 0 0 0 0 0 0 0 0 0 0 0 0 0 0 0 0 0 0 0 0 0 0 0
0 0 0 0 0 0 0 0 0 0 0 0 0 0 0 0 0 0 0 0 0 0 0 0 0 0 0 0 0 0 0 0 0 0 0 0 0 0 0 0 0 0 0
0 0 0 0 0 0 0 0 0 0 0 0 0 0 0 0 0 0 0 0 0 0 0 0 0 0 0 0 0 0 0 0 0 0 0 0 0 0 0 0 0 0 0
0 0 0 0 0 0 0 0 0 0 0 0 0 0 0 0 0 0 0 0 0 0 0 0 0 0 0 0 0 0 0 0 0 0 0 0 0 0 0 0 0 0 0
0 0 0 0 0 0 0 0 0 0 0 0 0 0 0 0 0 0 0 0 0 0 0 0 0 0 0 0 0 0 0 0 0 0 0 0 0 0 0 0 0 0 0
0 0 0 0 0 0 0 0 0 0 0 0 0 0 0 0 0 0 0 0 0 0 0 0 0 0 0 0 0 0 0 0 0 0 0 0 0 0 0 0 0 0 0
0 0 0 0 0 0 0 0 0 0 0 0 0 0 0 0 0 0 0 0 0 0 0 0 0 0 0 0 0 0 0 0 0 0 0 0 0 0 0 0 0 0 0
0 0 0 0 0 0 0 0 0 0 0 0 0 0 0 0 0 0 0 0 0 0 0 0 0 0 0 0 0 0 0 0 0 0 0 0 0 0 0 0 0 0 0
0 0 0 0 0 0 0 0 0 0 0 0 0 0 0 0 0 0 0 0 0 0 0 0 0 0 0 0 0 0 0 0 0 0 0 0 0 0 0 0 0 0 0
0 0 0 0 0 0 0 0 0 0 0 0 0 0 0 0 0 0 0 0 0 0 0 0 0 0 0 0 0 0 0 0 0 0 0 0 0 0 0 0 0 0 0
0 0 0 0 0 0 0 0 0 0 0 0 0 0 0 0 0 0 0 0 0 0 0 0 0 0 0 0 0 0 0 0 0 0 0 0 0 0 0 0 0 0 0
0 0 0 0 0 0 0 0 0 0 0 0 0 0 0 0 0 0 0 0 0 0 0 0 0 0 0 0 0 0 0 0 0 0 0 0 0 0 0 0 1 0 0
0 0 0 0 0 0 0 0 0 0 0 0 0 0 0 0 0 0 0 0 0 0 0 0 0 0 0 0 0 0 0 0 0 0 0 0 0 0 0 0 0 1 1
0 0 0 0 0 0 0 0 0 0 0 0 0 0 0 0 0 0 0 0 0 0 0 0 0 0 0 0 0 0 0 0 0 0 0 0 0 0 0 0 0 1 1
0 0 0 0 0 0 0 0 0 0 0 0 0 0 0 0 0 0 0 0 0 0 0 0 0 0 0 0 0 0 0 0 0 0 0 0 0 0 0 0 0 1 1
0 0 0 0 0 0 0 0 0 0 0 0 0 0 0 0 0 0 0 0 0 0 0 0 0 0 0 0 0 0 0 0 0 0 0 0 0 0 0 0 0 1 1
0 0 0 0 0 0 0 0 0 0 0 0 0 0 0 0 0 0 0 0 0 0 0 0 0 0 0 0 0 0 0 0 0 0 0 0 0 0 0 0 0 0 1
0 0 0 0 0 0 0 0 0 0 0 0 0 0 0 0 0 0 0 0 0 0 0 0 0 0 0 0 0 0 0 0 0 0 0 0 0 0 0 0 0 0 0
0 0 0 0 0 0 0 0 0 0 0 0 0 0 0 0 0 0 0 0 0 0 0 0 0 0 0 0 0 0 0 0 0 0 0 0 0 0 0 0 0 0 0
0 0 0 0 0 0 0 0 0 0 0 0 0 0 0 0 0 0 0 0 0 0 0 0 0 0 0 0 0 0 0 0 0 0 0 0 0 0 0 0 0 0 0
0 0 0 0 0 0 0 0 0 0 0 0 0 0 0 0 0 0 0 0 0 0 0 0 0 0 0 0 0 0 0 0 0 0 0 0 0 0 0 0 0 0 0
0 0 0 0 0 0 0 0 0 0 0 0 0 0 0 0 0 0 0 0 0 0 0 0 0 0 0 0 0 0 0 0 0 0 0 0 0 0 0 0 0 0 0
0 0 0 0 0 0 0 0 0 0 0 0 0 0 0 0 0 0 0 0 0 0 0 0 0 0 0 0 0 0 0 0 0 0 0 0 0 0 0 0 0 0 0
0 0 0 0 0 0 0 0 0 0 0 0 0 0 0 0 0 0 0 0 0 0 0 0 0 0 0 0 0 0 0 0 0 0 0 0 0 0 0 0 0 0 0
0 0 0 0 0 0 0 0 0 0 0 0 0 0 0 0 0 0 0 0 0 0 0 0 0 0 0 0 0 0 0 0 0 0 0 0 0 0 0 0 0 0 0
0 0 0 0 0 0 0 0 0 0 0 0 0 0 0 0 0 0 0 0 0 0 0 0 0 0 0 0 0 0 0 0 0 0 0 0 0 0 0 0 0 0 0
Wind_Speed
5 5 4 4 4 3 4 3 3 4 3 3 3 3 3 3 3 3 2 3 4 6 7 7 7 7 7 7 7 7 7 7 6 6 6 6 7 7 7 6 6 6 7
5 5 5 5 4 4 4 4 4 4 3 3 4 4 4 4 5 5 4 5 6 7 9 10 10 10 10 10 9 9 9 9 9 9 8 8 8 8 7 7 7 6 6
7 6 5 5 5 5 5 4 4 4 4 4 5 5 5 5 6 7 6 6 6 8 10 12 13 13 13 13 12 12 12 12 12 11 11 11 10 10 9 9 8 8 7
8 6 6 6 5 5 4 4 4 4 5 5 5 5 5 5 8 8 8 8 7 7 10 13 15 15 16 16 15 15 15 15 15 14 14 13 13 12 12 11 11 10 9
10 8 6 6 6 5 5 5 5 5 5 6 5 5 5 6 7 8 10 10 10 9 9 10 13 14 17 19 19 18 18 18 18 18 17 17 16 16 15 14 14 13 12
11 9 7 8 7 6 6 7 7 6 5 5 4 5 6 7 7 9 11 10 10 12 11 11 10 11 17 21 21 21 21 21 21 21 20 20 20 19 18 18 17 16 15
11 10 8 8 9 8 9 9 7 7 6 3 3 5 7 10 11 10 10 11 12 13 12 13 11 10 10 20 24 25 24 24 24 23 23 23 23 22 22 21 20 19 18
12 10 11 9 9 9 10 10 9 5 5 6 6 4 5 6 10 11 11 11 13 11 12 14 13 13 11 9 14 25 27 27 26 26 26 26 25 25 25 24 23 22 21
11 11 12 10 10 9 9 11 11 10 8 8 8 6 6 7 5 4 9 10 11 10 11 11 14 15 14 11 11 19 26 28 29 28 28 27 27 27 27 26 26 25 24
11 11 11 11 11 10 10 11 11 10 9 8 7 9 9 4 4 5 4 6 10 12 13 11 12 14 14 12 14 18 22 27 29 29 29 29 29 29 29 28 28 27 26
8 9 10 10 10 9 11 10 10 11 10 10 7 6 8 8 7 7 10 8 7 8 10 12 11 11 13 14 13 18 24 28 28 28 29 30 30 30 30 30 30 29 28
4 7 8 8 9 8 10 10 10 12 11 12 9 7 7 7 7 9 11 10 10 9 9 9 11 12 12 13 16 20 24 28 30 30 30 30 31 32 32 31 31 30 29
3 5 5 7 7 7 8 8 9 10 11 12 12 10 9 10 8 8 10 11 11 9 8 8 10 11 11 12 13 20 23 28 31 31 31 31 32 33 33 32 32 31 29
3 4 5 6 7 7 7 7 7 9 8 11 12 12 10 10 9 9 9 9 12 12 10 11 8 11 11 11 14 18 16 24 29 31 32 32 32 33 33 33 33 31 30
3 4 4 5 6 6 7 7 7 8 8 9 10 11 11 9 9 9 9 9 10 16 17 12 7 8 10 10 13 13 15 19 26 30 31 31 32 33 33 33 33 32 30
3 4 4 5 6 6 6 7 7 8 9 9 8 10 11 9 9 8 9 10 11 13 18 11 8 7 8 9 12 13 14 18 22 27 29 30 31 32 32 32 32 32 31
4 4 5 5 6 6 6 7 8 8 10 10 10 11 12 11 10 9 9 9 10 11 17 17 10 7 9 10 10 11 11 12 12 22 27 29 30 30 30 30 30 30 30
4 4 5 5 5 6 6 7 8 9 10 11 11 11 13 10 12 10 9 11 10 11 14 20 13 8 9 9 10 10 10 10 11 18 24 27 28 28 28 28 29 28 27
5 5 5 5 5 6 6 7 8 9 10 11 11 12 12 11 12 10 11 11 9 9 10 14 15 9 7 5 7 8 10 10 10 13 19 23 25 26 27 27 27 25 23
5 6 6 5 6 6 6 6 8 9 10 10 10 11 12 11 12 11 10 11 10 11 10 12 13 11 8 4 4 7 8 8 10 9 13 15 18 22 25 25 24 21 20
6 6 6 6 6 6 5 7 8 9 10 11 11 11 12 12 13 12 10 11 10 10 10 10 12 11 9 5 6 6 9 8 8 7 8 9 9 10 11 17 19 18 20
6 6 6 7 7 6 9 12 10 9 9 10 11 11 11 10 12 15 17 17 15 13 12 11 12 12 12 10 8 7 8 7 7 5 7 8 6 8 7 7 13 18 19
7 7 7 7 8 9 12 13 12 10 11 10 11 10 9 8 10 11 13 15 15 17 18 14 15 15 13 10 8 9 8 8 8 2 4 5 5 7 5 7 14 15 17
7 7 8 8 9 10 13 14 14 11 10 10 10 11 11 11 9 11 11 12 12 11 12 11 12 13 12 9 8 9 8 7 4 2 4 4 3 3 3 4 10 13 14
8 8 8 9 10 11 13 14 14 9 9 11 10 10 10 12 13 14 12 12 12 10 11 14 15 15 16 15 10 6 5 5 5 3 3 2 1 1 1 2 4 8 10
9 9 9 9 9 10 12 14 14 7 9 9 8 8 10 12 14 15 10 10 12 11 8 8 8 9 9 8 9 6 5 5 3 2 3 2 2 1 1 1 1 2 4
Wind_Direction
182 180 179 182 186 181 184 184 183 178 181 184 196 207 214 223 226 228 184 186 218 206 196 194 194 195 196 197 197 197 194 188 188 186 180 175 170 165 161 155 148 141 133
191 189 188 192 195 195 196 199 199 199 203 205 209 217 226 228 230 230 230 208 223 232 222 216 213 211 210 210 210 209 208 204 204 203 200 196 193 189 185 179 174 165 156
203 199 198 200 199 193 193 200 202 212 216 216 220 220 227 232 236 234 233 233 224 226 234 230 226 222 220 219 218 218 216 214 213 213 212 210 208 205 202 199 194 189 183
208 205 207 209 198 188 193 200 203 210 218 222 226 222 227 232 236 238 237 236 236 233 230 233 234 231 228 226 224 223 222 220 218 218 218 218 216 214 212 211 208 205 202
207 208 213 210 193 194 200 203 210 216 224 226 233 237 238 240 240 240 242 241 240 240 239 233 236 239 235 232 231 229 227 225 223 221 221 221 221 220 218 217 215 214 212
207 208 213 209 195 200 205 208 213 216 229 229 232 246 247 246 245 243 243 242 240 239 240 241 238 238 238 238 236 235 232 230 227 224 223 222 222 222 221 220 219 218 218
208 208 211 208 202 209 213 210 210 216 223 204 224 254 249 239 242 242 240 241 240 238 238 239 238 239 238 238 240 240 239 236 233 229 226 225 225 224 223 223 222 221 221
210 209 213 212 209 215 218 212 205 209 212 192 208 233 266 254 232 232 234 236 242 240 239 238 239 239 239 237 239 241 243 243 240 236 232 229 228 227 227 225 224 224 223
214 213 215 216 214 214 220 217 210 212 221 211 215 215 233 259 278 229 232 234 237 238 240 238 239 241 242 241 243 242 243 245 246 244 240 235 232 231 230 229 227 226 225
216 218 220 220 220 218 223 221 215 218 224 223 216 230 241 270 272 282 244 239 241 240 240 239 240 240 239 241 241 241 242 244 245 247 246 243 239 236 234 232 231 229 228
220 224 225 226 226 225 228 226 219 219 221 228 218 214 229 240 241 255 273 267 246 239 242 242 243 242 239 238 240 241 240 242 244 246 247 247 245 242 240 237 234 232 231
234 235 236 236 235 233 231 229 226 223 225 230 231 221 215 220 222 231 256 268 269 262 244 237 240 242 241 240 239 239 240 242 244 245 246 246 246 245 243 242 239 237 234
249 254 251 252 250 247 244 238 233 231 228 230 233 233 230 235 239 240 256 271 275 273 257 246 239 240 240 240 241 237 239 243 246 246 247 247 246 246 245 244 242 240 238
278 289 280 275 273 270 265 256 248 243 238 236 239 239 240 239 236 234 243 264 278 277 260 251 234 232 237 238 241 238 242 241 244 246 247 248 247 247 246 244 243 242 240
324 310 298 289 285 283 279 275 264 260 253 248 248 245 245 246 241 238 237 239 259 281 280 271 255 229 230 235 238 240 242 241 241 245 247 248 248 248 246 244 243 241 239
343 329 318 306 298 292 287 279 274 271 267 263 259 256 253 252 249 242 239 239 239 258 276 277 265 248 224 232 236 240 244 244 243 246 248 248 249 249 248 246 244 241 239
352 340 326 315 308 303 298 288 281 282 277 274 271 266 265 261 258 253 247 244 244 246 266 278 270 259 236 237 241 241 245 246 247 244 247 249 249 249 249 247 246 243 239
355 341 328 318 311 306 301 294 289 286 281 279 277 274 272 271 266 263 259 255 254 249 259 275 279 268 249 245 246 246 243 243 246 247 247 249 250 249 249 248 246 243 237
350 341 329 320 313 308 302 296 291 286 282 280 280 278 278 276 272 270 268 267 266 263 260 270 278 276 266 250 248 250 249 250 249 249 250 250 250 249 248 247 245 241 234
348 341 331 321 314 308 300 300 296 292 288 285 283 281 280 278 277 277 274 271 271 270 267 268 275 278 273 261 246 254 256 246 249 246 247 247 248 248 247 246 244 239 230
341 334 326 322 317 309 306 308 303 296 293 290 286 282 280 278 277 276 275 277 276 273 272 271 273 277 273 261 255 251 258 261 250 234 241 242 242 242 241 243 240 231 225
331 326 321 317 313 306 307 307 304 298 292 288 288 287 284 279 277 275 273 272 271 273 275 273 274 273 276 272 269 261 263 263 263 217 226 242 227 235 233 230 234 229 222
322 317 313 311 306 304 308 307 303 297 290 287 288 289 288 285 281 282 281 279 275 270 268 272 276 276 281 281 277 270 261 261 264 230 206 242 220 233 229 229 230 227 220
313 308 307 306 303 301 306 306 306 296 289 286 286 288 290 292 289 289 288 283 277 273 272 269 271 278 283 286 274 271 270 267 268 225 195 239 214 227 219 221 226 224 219
307 303 299 298 297 299 304 306 307 299 291 292 291 289 289 290 291 291 288 286 286 282 281 275 273 278 284 288 286 281 266 259 262 228 193 217 180 196 212 209 211 215 211
299 300 295 293 291 294 300 305 306 296 294 296 295 291 286 288 292 295 290 288 290 294 296 292 283 283 286 288 287 274 267 261 262 229 174 178 149 131 129 71 108 184 190